Temp
18 20 21 23 25 26 27 27 27 26 27 27 28 29 31 32 31 30 22 22 24 23 22 21 21 21 21 20 20 20 20 19 19 18 18 18 18 18 18 18 17 17 17 17 17 17 17 17 17
19 20 21 24 25 25 27 27 26 27 27 26 27 28 29 30 27 22 23 21 23 23 22 22 21 21 20 20 20 20 19 19 19 18 19 18 18 18 18 17 17 17 17 16 17 17 17 17 18
19 20 24 24 25 26 27 26 26 26 26 26 27 27 28 27 25 24 23 22 23 23 22 22 21 20 20 20 20 20 19 20 19 19 19 19 19 18 18 18 18 17 16 16 16 17 17 18 18
21 22 23 24 25 26 26 25 25 26 27 27 27 27 25 22 24 23 22 22 23 23 22 21 20 20 20 20 20 20 20 20 20 19 18 19 19 18 19 19 19 19 17 17 17 17 17 18 18
20 23 23 23 25 25 24 24 24 26 26 27 26 27 25 22 21 22 22 22 23 23 22 20 20 20 20 20 20 20 20 20 20 19 19 19 19 19 19 18 18 18 18 18 18 18 18 18 18
22 23 23 23 24 23 23 23 24 25 25 25 26 26 25 19 20 20 22 23 23 23 22 21 20 20 20 20 20 20 20 20 20 19 20 19 19 19 18 18 18 17 18 18 18 18 18 18 18
22 22 23 24 24 21 22 22 24 25 25 24 23 26 23 20 18 19 21 23 22 22 22 21 20 19 20 20 19 20 20 19 20 19 19 19 19 18 18 18 18 17 17 18 18 18 18 18 18
22 23 21 23 22 22 21 21 21 25 23 23 23 22 23 21 18 18 20 22 22 21 21 22 21 20 20 19 20 20 20 19 19 19 19 19 18 18 16 17 18 18 18 18 18 18 18 18 18
18 19 21 21 22 22 20 21 20 21 23 23 22 22 21 19 18 19 19 20 22 22 21 22 21 22 21 20 19 19 19 19 19 19 19 18 19 18 17 17 18 17 18 18 18 18 18 18 18
17 17 21 22 21 21 20 21 20 22 23 22 23 22 19 17 18 20 20 20 22 22 21 21 21 21 21 19 19 19 19 19 19 19 18 19 19 19 18 17 17 17 17 17 17 18 18 18 18
17 19 20 21 20 20 19 20 20 22 22 22 22 22 20 18 17 19 21 21 22 22 21 21 20 21 21 20 19 19 19 19 19 19 19 19 18 18 18 18 18 18 17 18 17 17 18 18 18
16 19 20 20 19 20 21 20 20 21 21 21 21 22 22 19 19 18 20 21 22 21 21 20 20 20 20 20 20 20 20 20 19 19 18 18 18 18 18 19 18 18 18 18 18 18 18 18 17
17 16 18 20 18 19 19 20 19 20 21 20 21 22 22 22 20 18 19 19 20 21 21 20 20 20 20 20 20 20 20 19 19 19 18 18 18 18 18 19 19 18 18 18 18 18 18 18 18
19 17 17 18 17 16 18 19 18 23 21 21 21 22 22 21 21 20 18 19 19 20 20 20 20 19 19 19 19 19 20 20 19 19 19 18 18 18 18 18 18 18 18 18 18 18 18 18 18
19 18 17 17 18 17 15 17 19 22 22 21 22 22 21 21 21 21 21 20 20 19 19 20 19 19 19 19 19 19 19 19 19 19 18 18 18 18 18 18 18 18 18 18 18 18 18 18 18
18 18 16 18 18 18 17 18 21 22 21 21 23 22 21 21 21 21 20 20 20 19 19 19 19 19 19 19 19 19 19 19 19 19 19 18 18 18 18 18 18 18 18 18 18 18 18 18 18
17 18 18 16 18 17 18 19 21 20 20 22 23 23 22 22 22 22 21 20 19 19 18 18 18 19 19 19 19 19 19 19 19 19 19 19 18 18 18 18 18 18 18 18 18 18 18 18 19
18 19 18 16 16 17 17 19 20 20 21 22 24 25 24 21 22 21 21 20 20 19 18 18 18 18 19 19 19 18 19 19 19 19 19 19 19 18 18 18 18 18 18 18 18 17 18 17 18
20 19 18 16 17 16 17 18 20 21 20 20 22 23 24 23 21 20 19 19 20 19 19 18 18 18 18 19 19 19 19 19 19 18 18 18 18 18 18 18 18 18 18 18 18 18 17 17 16
18 18 19 19 17 16 17 17 20 21 21 21 21 23 24 24 22 20 20 18 19 19 18 18 18 19 19 19 19 19 19 19 19 18 18 18 17 17 17 17 17 17 17 17 17 17 16 15 15
18 18 19 19 18 18 18 18 19 20 21 21 21 22 24 24 23 22 20 18 17 17 17 17 17 16 17 17 16 17 17 17 17 17 16 16 17 16 16 16 16 16 16 16 16 16 16 15 15
16 18 18 18 18 18 19 20 20 21 20 20 21 21 22 23 22 22 19 17 17 15 14 14 15 16 16 17 16 16 18 18 16 16 16 16 17 17 17 17 16 15 15 15 15 15 16 15 15
17 17 18 18 19 18 17 18 21 20 20 21 21 21 21 21 21 21 20 17 16 14 14 13 14 15 16 16 16 16 16 15 15 15 15 15 15 15 15 15 15 15 15 14 14 15 14 14 14
16 17 17 17 18 16 19 18 20 20 20 21 22 22 22 22 20 20 20 17 15 13 13 13 13 13 14 15 15 15 14 14 14 13 14 13 13 14 14 14 14 14 13 14 14 13 13 14 13
18 18 15 15 15 16 16 17 20 20 20 20 20 21 21 22 22 20 18 16 14 12 12 12 12 12 12 12 13 13 13 13 12 12 12 12 13 12 12 13 12 12 12 12 13 13 13 13 13
16 19 17 15 16 17 14 16 20 20 18 18 18 19 19 18 19 18 18 16 14 12 12 12 12 11 11 11 11 12 12 11 11 10 10 11 11 10 10 10 10 11 11 11 12 13 13 13 13
15 15 15 15 13 16 18 17 19 19 20 19 19 18 19 19 18 16 15 15 13 12 12 12 12 11 10 10 10 10 10 10 10 10 10 9 9 9 9 9 9 10 11 12 11 11 12 12 11
16 16 15 14 14 16 17 17 20 19 20 20 19 18 18 17 16 15 14 14 13 12 11 11 11 11 9 9 9 9 9 9 9 8 8 8 8 8 8 8 9 9 10 10 10 9 9 10 10
15 15 15 16 15 16 17 19 19 20 19 19 18 17 17 16 15 14 13 12 11 11 10 10 10 9 9 9 8 8 8 7 7 7 7 7 7 7 7 8 8 8 8 8 8 7 7 7 7
15 16 17 16 15 15 15 18 18 18 18 16 18 18 16 15 15 14 12 11 10 9 9 9 9 9 9 8 7 7 7 6 7 7 6 6 6 6 6 6 6 6 7 6 7 6 6 6 6
Height
812 810 810 811 820 811 810 812 804 809 806 799 798 795 791 784 795 810 809 811 813 818 824 828 831 835 837 839 840 841 843 844 845 845 846 846 847 847 848 848 848 848 849 849 849 849 849 849 849
811 811 811 810 816 819 808 804 807 803 802 801 800 798 796 796 797 806 810 813 815 819 824 829 832 835 838 840 841 842 844 845 846 846 846 848 849 849 850 850 850 849 850 850 850 850 850 851 851
810 810 807 813 809 812 803 807 803 801 800 803 802 798 797 801 803 806 809 813 818 821 825 829 832 835 839 842 843 844 845 846 847 847 848 849 850 851 851 851 851 851 851 852 852 852 852 852 853
809 809 809 812 810 803 803 806 804 800 799 799 800 801 802 807 806 808 811 815 820 823 826 829 833 836 840 843 844 846 847 848 848 849 850 851 852 852 852 852 852 853 853 854 854 854 855 855 855
807 803 811 812 804 804 806 806 805 801 801 799 801 802 803 808 810 811 813 816 821 825 828 831 834 836 840 843 845 847 849 849 850 851 852 853 854 854 854 854 854 855 855 855 855 856 856 857 857
802 801 808 811 807 810 807 808 806 802 802 802 801 801 806 813 814 814 816 818 823 827 830 833 835 837 841 844 847 847 850 850 850 852 854 855 856 856 856 856 857 857 857 857 857 857 858 858 858
800 803 802 802 807 818 811 810 807 805 803 807 808 804 811 815 817 818 819 822 825 828 832 835 837 840 841 844 848 849 850 851 852 853 854 856 857 858 858 858 858 858 858 858 858 858 859 859 859
797 798 811 805 812 815 812 815 814 805 811 810 808 817 813 816 819 820 821 824 826 829 832 835 838 841 843 844 849 851 851 852 853 854 855 856 857 858 859 859 859 859 859 859 859 859 860 860 860
810 812 810 810 809 811 814 814 817 814 809 811 815 817 818 817 819 821 823 825 827 829 832 834 837 842 843 844 848 852 852 852 854 855 856 857 859 859 859 859 859 859 859 859 859 859 860 860 860
809 819 806 804 809 813 817 814 818 814 812 815 814 815 817 817 819 821 824 825 827 829 832 835 837 841 844 844 846 851 853 854 855 856 857 858 859 860 860 859 859 859 859 859 859 859 859 860 861
805 807 808 807 809 813 818 816 818 813 817 817 817 816 817 819 821 823 824 826 826 829 833 835 837 840 843 845 846 849 853 854 855 856 857 857 858 858 859 859 859 860 859 860 860 860 861 860 860
809 803 805 807 814 817 816 820 818 817 818 818 819 817 816 818 821 824 825 825 826 829 831 835 836 839 841 845 846 847 851 853 854 855 855 856 857 857 858 858 859 859 859 860 860 859 859 859 858
803 809 811 809 818 819 819 819 820 818 816 819 820 818 815 815 818 822 825 826 827 829 831 834 836 838 840 843 846 846 849 851 853 853 854 854 855 856 857 857 857 858 858 858 858 858 858 857 857
794 807 812 815 823 825 826 823 823 808 816 818 818 817 816 817 818 819 823 825 827 829 830 832 834 838 839 841 844 846 847 848 850 851 852 852 854 854 854 855 856 856 856 856 856 856 856 856 855
793 805 810 813 818 824 834 830 819 810 812 814 814 815 816 817 817 817 819 823 825 827 829 831 833 836 838 839 841 844 845 846 848 849 849 850 851 852 853 853 854 854 854 854 854 854 854 853 853
797 804 815 809 816 820 829 819 803 807 811 810 810 812 814 815 817 816 817 819 822 825 827 830 832 834 836 838 840 841 843 844 845 846 847 848 849 850 851 851 851 851 851 852 851 851 851 851 850
800 800 806 818 809 816 818 810 800 805 808 805 804 806 810 812 813 815 815 815 817 821 824 826 829 832 833 836 838 839 840 842 842 843 845 845 846 847 848 848 849 849 849 849 848 848 848 848 847
791 791 800 811 813 813 815 810 803 804 804 800 795 796 802 809 809 814 814 813 814 817 821 823 826 829 831 832 835 836 837 839 840 840 841 842 843 844 845 845 845 845 845 845 845 844 845 844 844
781 791 798 810 808 814 814 812 801 800 802 800 795 794 794 801 806 812 813 812 812 814 818 819 823 826 828 829 831 833 833 835 837 837 837 838 840 840 841 841 841 841 841 841 841 841 841 841 841
791 791 792 798 806 817 813 810 797 795 796 795 793 790 790 793 801 807 811 812 811 811 813 817 819 822 825 827 828 830 830 831 834 835 835 835 836 837 837 837 836 836 836 836 836 837 836 836 836
790 791 793 796 802 806 806 803 796 792 792 791 789 787 784 787 793 801 807 809 810 810 811 813 815 817 820 824 826 825 827 828 829 831 832 830 830 831 831 831 831 831 831 831 832 831 831 831 831
798 792 794 799 799 805 799 795 788 788 788 786 785 787 785 785 792 797 802 806 808 810 810 812 813 815 817 820 822 822 824 825 826 827 828 828 828 828 828 828 828 828 828 827 827 826 827 827 827
795 796 797 799 800 805 807 808 782 785 782 780 780 784 784 787 790 793 797 802 805 806 807 810 812 814 815 818 818 820 821 822 823 824 825 826 826 825 825 825 825 824 824 823 823 823 823 823 823
797 800 803 805 802 814 797 802 782 781 783 777 773 775 779 780 787 789 793 798 801 805 804 809 812 813 815 816 816 817 818 820 823 823 824 825 824 824 823 822 822 821 820 819 819 818 818 818 818
792 794 816 820 820 806 811 807 784 780 779 781 778 777 774 774 778 783 791 794 798 801 805 809 811 812 815 815 815 816 818 819 821 821 822 823 823 822 821 820 819 819 817 816 815 814 813 813 814
795 786 795 807 808 800 818 805 782 778 783 782 782 780 778 779 779 784 785 789 794 799 804 806 809 812 813 814 815 816 817 819 819 819 820 821 821 820 818 817 817 815 814 814 813 812 811 809 810
804 806 805 809 824 806 791 794 780 776 776 777 779 781 775 775 779 784 787 789 795 798 803 805 808 811 812 814 815 816 816 816 817 816 816 818 818 817 816 815 813 812 811 811 811 810 809 809 810
795 798 806 811 814 805 798 794 775 779 776 775 776 778 777 778 781 783 787 789 792 798 803 805 808 810 811 812 814 814 814 814 814 814 815 816 815 814 813 812 811 811 810 810 809 809 809 809 810
802 801 803 801 807 799 795 780 775 776 778 778 779 780 778 779 781 785 787 791 794 797 801 805 807 809 810 811 813 813 814 813 814 813 814 814 813 812 811 810 810 810 810 809 809 808 808 808 809
798 793 791 798 808 809 805 786 778 779 782 785 778 778 780 781 781 783 788 790 794 797 800 804 807 810 810 810 811 813 813 813 812 811 811 811 811 810 810 809 808 808 808 808 808 808 808 808 808
Wind_Speed
3 1 5 4 5 5 12 6 1 5 4 2 3 3 5 1 6 2 8 9 21 25 22 22 20 19 16 15 14 13 11 10 9 10 12 14 14 14 14 13 13 13 12 12 13 14 15 13 13
3 3 3 1 7 11 11 6 7 4 1 5 3 3 5 4 4 5 14 10 22 24 22 21 20 18 16 16 16 14 12 9 8 9 11 14 13 13 12 12 12 13 12 12 12 13 12 12 12
3 3 4 4 8 13 12 8 4 1 2 4 3 2 1 3 4 11 6 17 24 23 22 20 21 19 17 16 15 13 11 7 7 9 11 14 12 12 10 10 12 12 12 12 12 12 11 11 11
6 4 3 7 15 11 4 8 1 2 4 6 2 4 3 4 3 3 15 22 22 21 21 20 21 20 17 16 15 13 10 6 7 11 11 14 11 11 8 7 10 11 12 12 12 11 11 11 10
3 3 9 9 16 9 6 4 0 3 4 4 2 3 3 5 3 8 18 22 21 20 19 19 19 19 17 17 15 13 9 7 10 11 11 12 12 10 4 7 9 9 10 10 10 9 9 9 8
5 3 11 15 16 6 5 2 2 2 3 4 4 2 5 5 4 10 16 21 19 20 19 18 19 18 18 16 15 12 8 7 12 14 12 12 11 8 4 6 7 8 8 8 8 7 6 5 6
15 9 15 16 12 7 4 2 1 4 5 6 3 1 3 7 3 9 15 19 19 19 18 18 16 16 18 16 14 11 8 7 11 15 14 12 9 6 6 6 6 7 6 6 5 5 4 3 3
5 11 13 9 13 7 6 2 3 1 6 2 4 3 4 7 3 9 13 17 18 18 17 17 16 16 16 16 13 10 6 7 8 13 13 12 9 6 6 5 5 6 5 5 4 3 2 2 1
2 5 15 11 11 8 4 4 1 3 9 10 5 7 6 5 8 11 12 14 17 17 16 17 15 15 15 17 15 11 7 7 7 8 11 8 6 6 5 8 6 6 4 4 3 2 2 1 1
6 4 18 8 3 6 3 3 3 3 8 7 8 11 7 6 9 12 14 15 17 18 16 15 15 15 15 17 15 12 8 7 7 7 7 7 6 6 7 6 7 7 4 3 2 2 1 0 2
11 16 9 7 8 6 1 3 2 7 6 7 8 11 9 5 2 10 11 14 18 17 16 16 15 14 15 15 16 14 10 8 7 7 7 6 6 5 5 5 5 5 5 4 3 3 3 3 3
8 15 17 9 4 4 4 3 1 2 4 4 4 7 11 3 5 5 11 13 15 17 16 15 14 14 15 14 15 13 11 9 8 8 8 7 6 6 6 6 6 6 6 6 5 5 5 5 5
13 7 9 8 2 0 2 4 6 6 4 2 1 4 11 7 5 7 9 10 12 15 16 16 14 14 14 14 14 13 12 10 9 9 8 7 7 6 6 6 6 6 6 6 6 6 6 6 6
14 14 19 16 16 6 9 9 6 12 4 4 3 2 7 10 1 8 11 13 14 14 15 15 15 14 13 14 14 13 12 11 10 9 9 9 7 7 6 6 7 7 7 7 7 7 7 7 8
12 13 13 15 19 10 10 21 23 18 9 11 11 5 4 6 6 4 9 13 14 16 14 15 14 14 14 14 14 14 13 12 11 10 10 10 10 8 8 7 7 7 8 8 9 9 9 10 10
9 12 10 16 20 10 18 21 18 18 13 16 14 9 6 3 6 6 6 11 12 14 15 14 14 14 14 13 13 13 12 12 11 10 10 11 11 11 10 9 9 8 9 9 10 10 11 12 12
12 11 16 10 20 9 18 11 5 2 15 20 19 13 8 5 5 7 5 8 11 14 15 14 14 15 15 14 12 12 12 12 11 11 11 11 11 12 12 12 11 11 11 11 11 12 12 13 14
17 15 16 10 14 14 17 12 4 7 11 18 21 19 15 10 8 8 8 6 11 13 14 14 14 15 14 14 13 11 12 13 13 12 12 11 11 12 13 14 14 12 13 14 14 14 13 14 15
14 13 14 4 8 8 14 13 13 10 8 9 12 15 19 14 7 6 6 6 8 11 13 14 14 15 14 13 13 13 13 13 13 13 13 13 13 13 14 14 14 14 15 15 15 14 14 15 12
15 15 11 7 13 14 11 17 16 14 13 12 14 15 19 14 11 7 5 6 7 8 12 12 13 14 15 14 13 11 10 11 11 10 10 12 13 13 14 16 16 15 15 16 16 15 14 11 11
11 15 13 8 10 9 4 11 16 17 18 15 15 15 15 18 16 10 7 7 6 6 8 11 12 14 14 13 12 11 10 8 6 6 6 8 10 12 13 16 18 19 20 22 22 18 16 14 12
10 10 11 8 9 6 9 4 8 17 20 20 17 15 13 15 13 11 8 9 9 8 8 9 12 14 16 16 13 11 10 9 6 6 7 8 9 10 11 12 13 12 12 14 16 16 15 15 13
5 10 12 10 11 4 8 5 10 4 17 17 17 18 17 14 14 14 13 11 9 11 11 10 10 10 11 11 10 8 6 5 5 5 6 7 7 8 9 9 10 12 13 14 14 14 15 15 16
13 11 9 5 6 6 11 10 4 5 8 11 12 17 19 17 12 12 13 12 12 11 12 12 11 10 10 9 8 6 5 4 3 3 4 5 6 7 8 9 9 10 10 12 13 15 15 15 15
13 16 4 5 5 4 2 8 11 6 8 5 7 8 12 14 15 12 12 15 16 14 14 13 11 9 7 6 6 4 3 3 3 3 4 6 6 6 6 9 8 8 8 9 9 11 13 14 16
14 13 3 6 5 5 3 7 3 2 2 4 7 9 8 6 9 11 13 16 18 19 16 14 12 10 8 6 4 3 3 2 2 3 4 5 6 6 7 7 6 7 6 5 6 8 9 9 10
7 5 2 4 1 3 4 4 11 3 3 2 3 5 8 6 8 8 11 15 16 17 16 14 13 10 8 6 5 3 3 3 3 5 5 5 6 6 6 5 5 5 5 6 4 4 2 3 5
2 10 3 1 4 4 3 4 3 8 5 5 7 7 6 4 4 6 9 14 16 16 14 12 11 10 8 6 4 4 4 5 5 5 4 5 6 6 5 4 4 4 4 4 3 2 4 5 4
4 4 1 0 2 2 1 2 2 8 3 5 6 6 6 2 3 5 9 14 16 14 12 11 10 9 8 5 4 3 4 5 5 5 5 5 5 5 4 5 4 4 3 2 2 3 4 3 3
1 8 12 6 5 1 3 3 4 3 3 3 6 6 3 2 4 7 12 14 13 13 12 10 9 7 6 5 4 4 5 5 6 6 5 5 4 5 5 4 4 3 3 3 3 3 4 4 4
Wind_Direction
311 292 154 192 212 233 210 196 129 162 204 33 293 251 194 66 168 68 143 147 152 154 160 162 167 164 164 160 153 141 140 138 128 123 118 123 120 109 100 92 90 94 96 94 96 96 93 90 83
311 151 122 188 234 212 195 172 193 171 292 324 234 219 209 133 59 99 142 153 155 153 158 164 170 163 166 162 151 149 145 139 125 129 126 129 124 111 103 92 92 95 98 99 102 102 98 90 82
165 168 173 192 223 228 210 185 161 261 276 224 196 277 311 77 74 144 135 155 156 154 156 163 165 166 167 161 158 153 144 130 132 135 132 136 131 116 108 89 91 95 97 99 104 105 101 92 83
179 167 134 217 211 211 230 150 113 187 102 168 297 163 124 30 124 132 148 152 156 156 157 167 166 166 166 161 158 149 141 123 134 137 130 138 134 128 112 95 92 98 98 98 103 105 101 93 83
201 185 189 219 208 184 158 117 128 147 115 148 276 126 88 54 20 132 147 154 157 156 155 158 166 164 164 161 160 153 147 125 129 131 133 137 140 130 141 110 104 106 102 101 104 108 104 95 86
183 213 199 207 200 176 154 159 197 83 94 84 171 158 79 33 98 135 154 156 158 157 156 161 166 165 164 166 163 154 148 128 137 128 132 136 142 150 151 116 114 113 109 107 106 109 110 103 89
199 200 210 207 189 175 153 149 143 95 126 65 341 198 79 58 62 144 155 157 159 158 163 162 161 167 167 169 169 157 143 128 143 150 147 154 171 185 168 129 127 123 120 115 114 114 118 118 107
243 204 206 217 197 160 135 115 40 55 74 96 360 48 107 39 154 147 152 163 163 163 163 164 165 168 169 167 174 157 158 139 148 169 168 171 177 181 159 143 145 136 130 119 116 116 129 144 145
218 194 199 206 198 144 147 150 43 331 111 73 78 35 310 327 163 145 148 161 170 171 172 173 170 174 175 171 170 171 174 153 155 168 184 188 180 176 178 192 173 157 143 136 132 144 177 180 262
162 183 205 145 113 145 131 133 112 167 132 93 80 38 52 135 160 163 171 167 176 178 179 178 175 178 181 171 171 179 184 171 171 170 172 175 185 186 179 186 185 178 183 181 181 194 218 155 246
187 188 161 158 89 102 179 94 108 145 114 69 58 35 62 118 124 185 187 181 179 181 183 183 179 180 185 178 181 188 192 195 191 184 183 185 183 191 194 201 199 203 211 214 226 243 240 250 264
171 222 199 216 57 263 275 132 148 234 83 95 63 41 46 129 194 217 198 195 185 183 184 185 183 187 185 195 191 189 195 202 201 199 193 188 192 198 205 207 208 212 220 227 237 246 255 264 271
217 183 214 194 188 97 339 301 297 238 222 225 244 22 43 46 195 218 226 214 206 195 189 191 189 190 192 196 203 200 200 207 212 205 206 203 201 206 211 219 221 224 229 236 246 255 260 268 274
185 179 195 211 229 246 283 273 301 236 137 197 261 8 39 35 16 222 228 226 215 206 199 197 199 202 201 199 206 207 208 211 215 217 216 215 216 215 217 223 229 231 233 240 247 253 263 269 272
178 179 178 194 205 198 237 265 240 236 250 262 271 280 317 24 22 248 235 230 222 218 207 204 204 205 205 203 207 212 213 211 216 221 223 221 224 229 233 236 238 238 239 244 252 258 263 268 272
165 182 173 191 191 207 183 249 252 235 242 260 258 265 276 308 350 325 245 230 222 215 209 206 203 207 205 208 208 210 212 212 217 221 224 226 228 232 236 242 247 247 247 248 250 257 263 268 271
191 181 202 174 193 168 193 246 233 261 243 251 248 248 258 265 293 335 292 226 220 213 209 204 204 210 208 211 215 215 215 217 220 224 228 230 233 237 240 246 251 251 252 253 256 259 262 269 273
185 200 196 169 193 194 200 230 183 200 224 250 249 244 242 239 257 303 294 248 218 212 212 209 209 210 212 211 215 221 223 230 230 231 232 235 238 240 243 251 255 257 258 258 257 258 259 262 270
170 181 172 138 175 165 211 235 244 246 228 236 249 248 239 224 241 273 291 248 223 208 210 214 214 213 204 205 210 223 227 231 237 239 242 244 247 248 250 253 257 257 257 261 260 258 260 262 262
176 177 175 156 164 201 202 233 243 240 236 226 239 258 221 214 222 243 267 247 212 214 206 207 207 207 211 215 214 221 223 230 238 243 245 246 250 253 253 256 260 259 257 259 257 252 247 244 240
174 190 172 184 162 195 220 243 240 243 242 234 240 250 236 213 219 226 234 223 207 191 205 205 207 205 203 205 207 212 222 232 231 231 232 243 252 258 262 266 265 264 262 265 264 258 244 243 246
164 210 176 165 172 217 202 262 221 228 232 230 235 242 247 243 226 225 222 209 194 174 174 180 189 196 205 211 213 215 226 232 226 233 248 261 265 265 265 265 262 260 262 261 263 259 252 245 243
116 163 188 196 211 220 196 248 254 255 240 239 235 239 245 241 227 223 210 202 189 180 170 168 168 169 174 182 179 177 178 199 232 251 266 271 274 269 267 266 270 269 264 262 261 261 255 248 245
137 129 124 147 211 239 226 229 257 251 281 268 255 241 241 238 225 225 216 191 181 183 168 170 164 164 166 165 163 165 167 179 218 249 265 269 273 274 271 272 276 273 269 266 264 260 253 245 243
178 164 130 178 199 240 101 226 261 259 259 281 306 281 262 247 236 215 198 189 180 179 175 172 169 159 157 152 151 157 178 206 232 266 279 285 280 274 276 279 277 276 274 272 268 262 261 256 248
189 182 188 191 200 193 164 217 226 360 324 258 255 264 258 249 247 239 224 194 186 180 177 172 168 163 163 161 160 169 188 209 236 259 272 277 279 285 293 290 280 273 275 276 265 262 255 249 244
174 209 37 92 67 225 174 228 276 281 218 351 349 296 266 245 233 225 221 195 182 175 178 171 168 165 160 165 167 176 212 235 247 264 271 272 278 279 287 284 279 270 265 260 242 220 202 183 172
217 143 166 152 181 219 162 254 216 128 69 26 10 343 329 297 263 226 200 191 175 172 171 166 170 167 165 171 181 204 233 251 261 265 262 266 268 268 271 273 266 258 252 250 232 191 204 224 228
162 188 132 103 329 291 277 163 134 144 45 24 19 2 339 306 223 201 183 175 165 161 165 169 172 172 170 179 200 224 249 259 257 254 258 260 264 267 264 257 252 244 238 227 214 178 173 144 175
261 228 219 227 187 225 309 262 146 205 303 307 16 32 352 252 171 163 169 163 162 164 168 175 179 189 191 191 215 247 259 258 250 242 239 250 253 263 264 254 238 229 219 192 152 156 171 153 140